Wind_Speed
47 47 48 47 47 46 46 45 45 45 44 43 42 41 40 39 38 38 37 37 35 35 34 34 34 34 33 33 33 33 32 33 33 33 33 33 33 34 34 34 34 35 35
48 48 49 49 49 48 47 47 47 47 46 44 43 43 42 42 41 40 39 39 38 37 36 36 35 35 35 35 35 34 34 34 34 34 34 34 35 35 35 35 36 36 37
48 48 49 50 50 49 49 49 48 48 46 46 45 45 44 44 43 43 42 42 41 40 39 38 38 37 38 37 36 36 36 36 36 36 36 36 36 36 37 37 37 38 38
49 49 50 51 51 51 51 50 50 50 50 49 48 48 47 46 46 45 45 44 44 43 42 41 41 40 39 39 38 38 38 38 38 37 37 37 37 37 38 38 39 39 39
49 50 50 52 52 53 52 51 51 51 51 50 50 50 49 49 48 48 47 46 46 45 45 44 43 42 41 40 40 40 40 40 40 39 38 39 39 39 39 39 40 40 40
50 50 50 51 52 53 52 52 52 52 53 52 51 51 51 51 50 49 48 48 47 47 47 46 45 44 44 43 41 41 40 40 40 39 39 39 39 39 40 40 41 42 41
50 50 50 51 51 52 52 52 52 52 54 53 53 53 52 52 50 50 50 49 49 49 48 47 47 46 45 44 43 42 41 42 41 41 41 41 41 41 41 42 42 42 42
48 49 50 50 50 51 51 52 52 53 54 54 54 54 54 53 52 51 51 51 51 50 50 49 48 47 47 46 45 44 43 44 44 43 42 42 42 42 42 42 43 44 44
46 47 49 48 49 50 51 52 52 53 53 54 54 54 54 54 53 51 51 52 52 51 50 50 49 48 48 47 46 45 45 45 45 44 44 43 44 43 43 43 44 44 45
45 46 47 47 48 50 50 51 50 51 51 52 53 53 54 54 53 52 51 51 50 50 50 49 49 49 49 47 47 46 46 46 45 45 45 45 45 44 44 44 44 45 45
44 46 46 47 48 49 50 51 50 49 49 50 51 52 53 53 53 53 51 50 49 49 49 49 49 50 50 48 48 48 47 46 46 46 45 45 45 45 45 45 46 45 45
42 44 47 47 48 48 48 48 49 48 48 48 48 50 51 51 51 52 52 50 49 49 48 48 48 48 49 49 49 48 48 48 47 47 46 45 45 45 46 46 46 45 45
39 40 43 44 46 47 46 46 47 47 45 45 46 48 48 49 50 50 51 51 50 49 48 48 47 48 49 49 49 50 49 48 48 48 47 46 46 46 46 46 45 46 45
37 37 39 40 42 43 45 44 44 44 43 43 44 45 45 46 47 48 49 50 49 48 47 47 46 46 47 48 48 50 49 49 49 49 49 48 47 46 47 46 44 45 45
35 36 37 38 37 39 41 42 41 41 41 42 41 41 42 42 44 45 46 46 47 46 44 43 43 44 45 46 47 48 49 48 48 48 48 49 48 47 46 46 45 45 46
33 34 33 34 35 36 37 39 38 38 39 40 40 40 40 42 42 43 44 45 45 45 43 41 41 42 43 44 45 46 47 47 47 48 48 48 48 47 47 45 45 45 46
32 32 31 31 31 32 33 35 36 36 37 38 38 39 39 41 40 41 43 43 42 43 42 41 42 42 42 42 44 44 45 46 45 46 47 46 46 45 45 43 43 43 43
30 30 30 29 30 30 31 32 34 35 35 36 36 37 37 37 38 39 39 39 39 40 41 41 41 42 42 43 43 43 43 44 44 45 45 44 43 42 42 42 42 43 43
28 27 27 28 28 29 30 30 32 33 33 34 35 34 35 35 35 36 36 36 37 38 39 39 39 40 40 41 41 41 41 42 43 43 43 42 41 41 41 41 42 42 43
26 25 25 26 26 27 28 30 30 31 31 32 33 32 32 33 33 35 35 35 36 36 37 36 36 37 38 39 39 39 40 41 41 41 40 39 39 39 40 40 41 42 43
24 24 24 24 24 26 27 29 29 30 29 30 30 31 32 32 32 33 33 34 34 35 35 35 34 35 36 36 36 38 38 38 38 38 38 37 37 37 40 40 40 41 41
23 22 22 23 24 24 25 27 28 29 29 28 29 31 32 32 31 31 32 33 33 34 35 35 34 33 34 34 35 36 36 35 35 35 36 36 37 37 38 38 39 39 39
22 21 21 22 23 24 26 27 28 28 28 28 29 30 31 30 31 31 32 32 33 33 34 33 33 32 32 32 33 34 34 33 33 33 35 35 36 36 37 37 37 36 35
21 21 21 22 23 25 26 26 26 25 27 28 28 28 28 29 30 32 33 32 32 32 31 31 32 31 31 32 32 32 32 31 31 31 33 34 34 34 35 35 34 33 31
22 22 22 22 23 24 25 26 26 26 26 27 27 28 29 30 31 32 31 30 30 30 31 31 30 31 31 32 32 32 31 30 29 30 32 32 32 32 32 32 31 30 29
24 23 23 24 25 25 25 26 26 27 27 27 28 29 29 30 30 30 29 29 28 28 29 29 30 31 31 31 31 31 30 29 28 27 29 30 30 30 30 29 29 29 28
Wind_Direction
259 257 256 256 256 256 257 257 259 259 259 259 260 261 261 262 262 263 264 265 266 267 269 270 272 273 274 276 276 278 279 280 281 283 284 286 289 291 292 293 294 296 296
259 258 256 256 257 256 256 257 258 258 258 258 258 260 262 263 262 262 263 264 265 265 266 268 269 271 273 275 276 277 278 280 281 282 283 285 287 289 292 293 294 294 295
259 258 257 256 256 256 257 257 257 257 258 258 258 259 260 262 262 262 263 264 265 265 265 266 268 270 271 273 274 275 277 279 280 280 281 283 286 288 290 292 293 294 294
259 258 258 256 256 256 257 257 258 257 257 258 259 259 260 260 261 262 262 263 264 264 264 265 267 268 269 271 272 273 275 278 279 280 281 282 284 287 290 292 292 293 294
260 258 258 257 256 257 258 257 258 258 258 258 258 259 259 259 260 261 261 262 262 263 263 265 266 267 268 269 270 272 274 277 279 280 281 281 283 286 288 291 292 293 293
260 259 258 258 257 257 257 257 257 257 258 257 258 258 259 260 260 260 261 262 263 263 264 264 265 266 266 267 269 270 272 275 278 279 280 281 284 285 287 290 292 292 293
261 259 259 258 258 258 258 258 257 257 258 257 258 258 259 260 260 260 261 262 264 265 265 265 264 264 265 266 267 268 270 273 276 279 280 281 283 284 285 288 291 293 293
261 260 259 259 259 259 259 258 258 258 258 258 258 259 259 259 259 260 261 262 263 265 265 265 265 264 264 265 266 267 269 271 274 277 279 281 282 284 286 288 289 291 292
261 260 258 258 259 259 259 258 258 257 258 258 259 259 260 259 259 260 261 262 263 264 265 265 264 264 264 264 265 266 268 271 272 273 277 279 281 283 285 287 289 290 291
262 260 259 260 260 260 259 258 258 257 258 259 259 260 261 261 260 259 260 262 263 264 264 264 263 263 262 262 263 264 266 268 271 272 274 277 279 281 282 285 288 289 290
263 261 261 261 261 259 259 258 257 257 257 260 260 261 261 262 261 261 260 261 262 264 264 263 262 262 262 261 261 263 265 266 269 271 273 275 278 280 280 284 287 287 289
265 262 262 261 261 260 259 258 257 257 259 260 261 261 262 262 263 262 261 261 261 262 263 262 262 262 262 261 261 262 264 265 267 269 272 273 275 278 279 282 284 286 289
268 264 265 264 262 261 259 259 257 257 259 260 261 261 262 262 262 262 262 261 261 261 261 262 262 262 261 261 261 261 263 265 266 267 269 270 272 276 277 279 283 285 288
270 267 268 267 264 263 260 258 255 256 258 259 261 262 263 263 263 262 262 261 261 260 260 261 261 261 261 262 261 262 263 264 265 265 267 268 270 273 275 278 282 284 287
274 273 270 268 268 264 261 259 256 257 257 258 261 263 263 264 264 263 262 261 260 259 258 259 259 260 260 261 261 262 263 264 265 265 267 267 269 271 273 276 280 282 286
276 276 271 270 269 267 263 259 258 258 258 259 261 262 263 264 264 264 263 261 260 260 260 259 258 259 260 261 262 263 263 263 264 265 266 265 267 269 273 276 278 282 285
280 276 273 272 271 267 263 262 260 258 259 261 263 264 265 266 266 265 264 261 260 261 261 260 260 260 261 262 264 265 264 264 265 266 266 267 267 268 271 274 277 281 284
282 278 275 274 271 267 265 264 261 260 260 262 264 264 264 266 267 265 263 262 261 261 262 261 262 263 262 263 265 265 265 264 264 266 266 266 267 268 270 273 276 278 282
287 282 279 275 270 265 264 266 266 262 262 264 264 264 264 265 266 263 262 262 263 263 264 263 262 262 263 262 263 265 265 265 265 265 265 265 265 266 271 274 276 280 281
290 286 282 276 270 266 266 268 269 266 264 264 264 264 265 266 265 263 263 263 264 264 264 264 263 263 263 263 263 264 264 265 265 265 265 265 265 266 270 273 277 279 280
294 289 284 278 271 269 269 270 270 268 266 265 263 262 265 266 266 265 264 264 265 265 264 264 264 264 264 264 265 265 264 265 266 265 265 265 266 266 269 273 276 278 281
295 292 284 276 272 274 273 272 273 271 268 265 262 263 265 266 265 265 265 266 267 267 265 266 265 265 264 265 266 267 265 265 265 265 267 266 266 267 269 271 275 278 281
295 291 284 277 276 277 275 276 275 273 270 267 265 264 263 264 265 265 265 268 269 268 268 268 266 266 266 265 267 268 268 266 266 266 266 266 265 267 269 271 274 276 279
295 292 288 284 282 280 278 278 276 275 274 271 268 267 268 269 268 267 267 268 270 270 270 268 268 268 267 267 269 269 269 267 264 264 265 266 265 266 267 270 271 274 277
295 291 289 286 286 284 283 281 278 277 276 274 272 273 272 271 270 269 268 269 271 271 268 269 270 269 268 268 270 270 270 268 264 263 265 267 267 267 266 267 267 270 273
295 292 291 291 290 287 284 282 278 278 278 276 275 275 274 272 271 268 268 269 271 270 268 269 269 269 268 268 270 270 271 268 265 265 265 267 268 268 266 266 268 271 272
Height
5769 5771 5773 5775 5776 5778 5779 5782 5783 5785 5786 5788 5789 5790 5792 5793 5794 5794 5795 5796 5796 5796 5796 5796 5795 5795 5794 5794 5793 5792 5791 5790 5789 5787 5786 5784 5782 5780 5778 5776 5773 5770 5767
5757 5759 5761 5763 5765 5767 5769 5771 5773 5775 5776 5778 5779 5781 5782 5784 5785 5786 5786 5787 5788 5788 5788 5788 5788 5788 5787 5786 5785 5785 5784 5783 5782 5780 5779 5777 5775 5773 5771 5768 5766 5763 5760
5745 5747 5749 5752 5754 5756 5758 5760 5762 5764 5766 5768 5770 5771 5773 5774 5775 5776 5777 5777 5778 5779 5779 5780 5780 5780 5779 5779 5778 5777 5776 5775 5774 5773 5771 5769 5768 5766 5763 5761 5758 5755 5752
5733 5735 5737 5739 5742 5744 5746 5748 5751 5753 5755 5757 5759 5760 5762 5763 5764 5765 5766 5767 5768 5769 5770 5770 5771 5771 5771 5770 5769 5769 5768 5767 5766 5764 5763 5761 5760 5758 5756 5753 5750 5747 5744
5719 5721 5724 5726 5728 5730 5733 5735 5738 5740 5742 5745 5747 5749 5750 5752 5753 5755 5756 5756 5757 5758 5759 5760 5761 5761 5761 5761 5761 5760 5759 5758 5757 5756 5755 5753 5751 5749 5747 5745 5742 5739 5736
5705 5707 5710 5712 5714 5717 5719 5722 5724 5727 5729 5731 5734 5736 5738 5740 5741 5743 5744 5745 5746 5747 5748 5749 5750 5751 5751 5751 5751 5751 5750 5749 5748 5747 5746 5744 5742 5741 5739 5736 5734 5730 5727
5690 5693 5696 5698 5700 5703 5706 5708 5710 5712 5715 5717 5720 5722 5725 5726 5728 5730 5731 5733 5734 5735 5736 5737 5738 5739 5740 5740 5741 5741 5740 5740 5739 5738 5737 5735 5734 5732 5729 5727 5724 5722 5718
5676 5678 5681 5684 5686 5688 5690 5693 5696 5699 5701 5703 5705 5708 5710 5714 5715 5717 5718 5720 5721 5722 5723 5724 5725 5727 5728 5729 5730 5730 5730 5729 5729 5728 5727 5726 5724 5722 5720 5717 5715 5712 5709
5662 5665 5667 5670 5672 5674 5677 5679 5681 5684 5687 5689 5690 5693 5695 5699 5701 5704 5705 5706 5707 5709 5710 5711 5712 5714 5715 5716 5717 5718 5719 5719 5719 5718 5717 5716 5715 5712 5710 5708 5705 5702 5699
5649 5652 5654 5656 5658 5660 5662 5664 5666 5669 5672 5675 5677 5679 5681 5683 5686 5689 5692 5693 5694 5695 5697 5698 5699 5700 5702 5703 5705 5706 5707 5708 5707 5707 5707 5706 5704 5702 5699 5697 5695 5693 5690
5637 5638 5641 5642 5644 5646 5648 5650 5653 5656 5658 5661 5663 5665 5667 5669 5671 5674 5678 5680 5681 5682 5683 5684 5686 5687 5688 5690 5692 5694 5694 5695 5696 5695 5695 5694 5694 5692 5689 5687 5685 5682 5679
5624 5625 5627 5628 5630 5631 5634 5636 5640 5642 5645 5648 5650 5652 5654 5656 5658 5659 5662 5665 5667 5669 5669 5670 5671 5673 5674 5676 5678 5680 5681 5682 5683 5684 5683 5683 5682 5681 5679 5677 5674 5672 5669
5613 5613 5614 5614 5616 5618 5620 5623 5626 5630 5633 5635 5638 5640 5641 5643 5644 5645 5647 5649 5652 5655 5656 5657 5658 5659 5660 5662 5664 5666 5668 5669 5670 5671 5671 5671 5671 5670 5668 5667 5664 5661 5659
5602 5602 5603 5603 5604 5605 5608 5610 5614 5618 5621 5623 5625 5627 5628 5630 5631 5632 5634 5635 5637 5640 5643 5645 5645 5646 5647 5648 5650 5651 5653 5655 5657 5658 5659 5659 5659 5658 5658 5656 5653 5651 5648
5593 5592 5592 5592 5593 5594 5596 5599 5602 5606 5609 5611 5613 5615 5616 5618 5619 5620 5621 5622 5624 5626 5630 5633 5633 5633 5633 5635 5636 5638 5639 5641 5642 5644 5645 5646 5646 5646 5646 5644 5642 5640 5638
5584 5583 5583 5583 5584 5585 5587 5589 5592 5595 5598 5601 5602 5604 5605 5606 5607 5608 5609 5610 5611 5613 5616 5620 5621 5622 5622 5623 5624 5625 5626 5627 5629 5631 5632 5632 5633 5634 5634 5633 5632 5629 5627
5576 5575 5575 5575 5575 5577 5579 5581 5583 5585 5588 5590 5592 5593 5594 5595 5595 5596 5597 5598 5600 5601 5604 5607 5608 5610 5610 5611 5612 5613 5614 5615 5616 5617 5618 5620 5621 5621 5622 5621 5620 5618 5615
5569 5567 5567 5567 5567 5569 5571 5572 5574 5576 5578 5580 5582 5583 5584 5584 5585 5586 5586 5588 5589 5591 5593 5595 5597 5598 5600 5600 5601 5602 5603 5603 5604 5605 5606 5607 5608 5609 5610 5610 5608 5607 5605
5562 5561 5560 5560 5560 5562 5563 5565 5566 5568 5569 5571 5572 5573 5574 5575 5575 5576 5577 5578 5579 5581 5582 5584 5587 5588 5589 5589 5590 5591 5591 5592 5593 5593 5594 5596 5597 5598 5598 5598 5597 5596 5594
5557 5555 5554 5554 5554 5555 5556 5558 5559 5560 5561 5562 5563 5564 5565 5566 5566 5567 5568 5569 5570 5571 5573 5574 5576 5578 5579 5578 5579 5580 5581 5581 5582 5583 5583 5585 5586 5587 5587 5587 5586 5584 5583
5551 5549 5548 5548 5548 5549 5550 5551 5551 5552 5553 5554 5555 5556 5556 5557 5557 5558 5559 5560 5561 5562 5563 5564 5566 5568 5569 5569 5570 5570 5571 5571 5572 5572 5573 5575 5576 5576 5576 5576 5575 5573 5571
5547 5545 5543 5543 5543 5543 5543 5543 5543 5544 5545 5546 5547 5547 5548 5549 5550 5550 5550 5551 5552 5553 5554 5555 5557 5558 5559 5559 5559 5560 5560 5561 5562 5564 5564 5565 5565 5565 5565 5565 5564 5562 5561
5543 5540 5539 5538 5538 5537 5537 5536 5536 5536 5537 5538 5538 5539 5540 5541 5541 5542 5542 5542 5543 5544 5545 5546 5547 5548 5549 5550 5550 5550 5550 5551 5552 5553 5553 5554 5555 5555 5555 5554 5554 5553 5552
5539 5536 5535 5533 5532 5532 5530 5529 5529 5529 5530 5530 5531 5531 5531 5532 5532 5532 5533 5534 5534 5534 5535 5536 5538 5538 5539 5540 5540 5540 5540 5541 5542 5542 5542 5544 5545 5545 5545 5545 5545 5544 5543
5535 5532 5531 5529 5527 5526 5524 5523 5522 5523 5523 5523 5523 5523 5523 5524 5524 5523 5524 5525 5525 5525 5526 5526 5527 5528 5529 5530 5530 5530 5531 5531 5533 5534 5533 5533 5535 5535 5536 5536 5536 5535 5535
5530 5528 5526 5523 5522 5520 5518 5516 5516 5516 5516 5515 5515 5515 5515 5515 5514 5514 5515 5516 5517 5517 5518 5518 5519 5519 5520 5521 5521 5521 5521 5522 5523 5524 5524 5525 5525 5526 5527 5528 5527 5527 5527